Location: Del Amo
(33.8464°N, 118.2104°W)
Time: 03:56:14
(UTC+00:00)

Transit 4A - Pass Details

Date: 16 September 2024
Orbit: 865 x 977 km, 66.8° (Epoch: 08 October)

Event Time Altitude Azimuth Distance (km) Brightness Sun altitude
Exits shadow 11:53:32 14° 315° (NW) 2,249 9.7 -21.9°
Drops below altitude 10° 11:56:27 10° 345° (NNW) 2,573 10.2 -21.3°
Sets 12:00:19 0° 9° (N) 3,542 11.3 -20.6°
